This is the latest recevied weather packets stored in our database for station/object KB5DPX. If no packets are shown the sender has not sent any weather packets the latest 1 day(s).
| Time | Temp. | Humidity | Pressure | Rain* | Wind** | Luminosity | Snow |
|---|---|---|---|---|---|---|---|
| 1778040757 | 3.33° C | 70% | 1011.2 hPa | 0 mm | 1.34 m/s, 34° | 0 W/m² | - |
| 1778040460 | 3.33° C | 70% | 1011.1 hPa | 0 mm | 1.79 m/s, 35° | 0 W/m² | - |
| 1778040165 | 3.33° C | 71% | 1011.1 hPa | 0 mm | 1.79 m/s, 31° | 0 W/m² | - |
| 1778039854 | 3.33° C | 71% | 1011.1 hPa | 0 mm | 1.34 m/s, 30° | 0 W/m² | - |
| 1778039561 | 3.33° C | 71% | 1011 hPa | 0 mm | 2.24 m/s, 37° | 0 W/m² | - |
| 1778039245 | 3.33° C | 70% | 1011 hPa | 0 mm | 2.24 m/s, 32° | 0 W/m² | - |
| 1778038961 | 3.33° C | 71% | 1011 hPa | 0 mm | 2.24 m/s, 27° | 0 W/m² | - |
| 1778038646 | 3.33° C | 71% | 1011 hPa | 0 mm | 2.24 m/s, 17° | 0 W/m² | - |
| 1778038360 | 3.33° C | 72% | 1010.9 hPa | 0 mm | 3.13 m/s, 43° | 0 W/m² | - |
| 1778038056 | 3.89° C | 72% | 1010.9 hPa | 0 mm | 3.13 m/s, 17° | 0 W/m² | - |
| 1778037741 | 3.89° C | 72% | 1011 hPa | 0 mm | 3.13 m/s, 11° | 0 W/m² | - |
| 1778037456 | 3.89° C | 72% | 1010.7 hPa | 0 mm | 3.13 m/s, 13° | 0 W/m² | - |
| 1778037143 | 3.89° C | 73% | 1010.8 hPa | 0 mm | 2.24 m/s, 344° | 0 W/m² | - |
| 1778036857 | 3.89° C | 73% | 1010.7 hPa | 0 mm | 3.13 m/s, 13° | 0 W/m² | - |
| 1778036561 | 3.89° C | 74% | 1010.7 hPa | 0 mm | 2.24 m/s, 5° | 0 W/m² | - |
| 1778036259 | 3.89° C | 73% | 1010.6 hPa | 0 mm | 2.68 m/s, 348° | 0 W/m² | - |
| 1778035945 | 3.89° C | 74% | 1010.5 hPa | 0 mm | 3.13 m/s, 34° | 0 W/m² | - |
| 1778035655 | 3.89° C | 76% | 1010.4 hPa | 0 mm | 3.58 m/s, 19° | 0 W/m² | - |
| 1778035341 | 4.44° C | 76% | 1010.3 hPa | 0 mm | 1.79 m/s, 22° | 0 W/m² | - |
| 1778035056 | 4.44° C | 76% | 1010.3 hPa | 0 mm | 2.68 m/s, 17° | 0 W/m² | - |
| 1778034764 | 4.44° C | 76% | 1010.4 hPa | 0 mm | 4.02 m/s, 5° | 0 W/m² | - |
| 1778034441 | 4.44° C | 76% | 1010.2 hPa | 0 mm | 2.68 m/s, 355° | 0 W/m² | - |
| 1778034157 | 4.44° C | 76% | 1010.1 hPa | 0 mm | 3.13 m/s, 9° | 0 W/m² | - |
| 1778033842 | 4.44° C | 76% | 1010 hPa | 0 mm | 4.02 m/s, 341° | 0 W/m² | - |
| 1778033557 | 4.44° C | 77% | 1010.1 hPa | 0 mm | 4.02 m/s, 5° | 0 W/m² | - |
* Rain latest hour (hover to see other rain measurements)
** Current wind speed in m/s (hover to see current wind gust speed)